Regional Weather Roundup
Issued by NWS Portland, ME

Home | Current Version | Previous Version | Text Only | Print | Product List | Glossary On
Versions: 1 2 3 4 5 6 7 8 9 10 11 12 13 14 15 16 17 18 19 20 21 22 23 24 25 26 27 28 29 30 31 32 33 34 35 36 37 38 39 40 41 42 43 44 45 46 47 48 49 50
000
ASUS41 KGYX 040610
RWRGYX
WEATHER ROUNDUP FOR MAINE AND NEW HAMPSHIRE
NATIONAL WEATHER SERVICE GRAY ME
100 AM EST SUN DEC 04 2016

MEZ002-005-006-010-012-015-018-020-021-024-026-027-029-040700-
MAINE

CITY           SKY/WX    TMP DP  RH WIND       PRES   REMARKS
PORTLAND       CLOUDY    34  20  56 NW10      30.04R
6HR MIN TEMP:  33; 6HR MAX TEMP:  36;

SANFORD        MOCLDY    32  25  75 W5        30.05R
BAR HARBOR     CLEAR     30  24  78 N5        30.00R
WISCASSET      CLOUDY    34  20  56 VRB3      30.04R
6HR MIN TEMP:  32; 6HR MAX TEMP:  35;

ROCKLAND       CLOUDY    33  22  63 NW6       30.00R
FRYEBURG       MOCLDY    30  22  72 CALM      30.03R
6HR MIN TEMP:  29; 6HR MAX TEMP:  34; 6HR PCP: TRACE;

LEWISTONAUBURN CLOUDY    33  20  58 N9        30.03R
AUGUSTA        CLOUDY    31  21  66 NW10      30.02R
6HR MIN TEMP:  30; 6HR MAX TEMP:  33;

WATERVILLE     CLOUDY    31  23  72 NW9       29.99R
BANGOR         CLEAR     28  23  81 NW7       30.01R
6HR MIN TEMP:  25; 6HR MAX TEMP:  32;

GREENVILLE       N/A     25  23  92 NW15G26   29.92S WCI  13
6HR MIN TEMP:  25; 6HR MAX TEMP:  27; 6HR PCP:  0.02;

MILLINOCKET    CLOUDY    29  21  72 NW8       29.99R
6HR MIN TEMP:  29; 6HR MAX TEMP:  31;

HOULTON        CLOUDY    27  24  89 NW5       29.95R
6HR MIN TEMP:  24; 6HR MAX TEMP:  30;

PRESQUE ISLE   CLOUDY    27  23  85 NW9       29.98R
6HR MIN TEMP:  23; 6HR MAX TEMP:  27; 6HR PCP: TRACE;

FRENCHVILLE    CLOUDY    24  19  81 NW17      29.94R WCI  11
6HR MIN TEMP:  23; 6HR MAX TEMP:  26;

CARIBOU        CLOUDY    25  20  81 NW9       29.95R
6HR MIN TEMP:  24; 6HR MAX TEMP:  27;

$$

NHZ002-005-008-009-011-012-014-040700-
NEW HAMPSHIRE

CITY           SKY/WX    TMP DP  RH WIND       PRES   REMARKS
PORTSMOUTH     MOCLDY    34  21  58 NW10      30.04R
ROCHESTER      MOCLDY    33  21  61 NW6       30.04R
6HR MIN TEMP:  33; 6HR MAX TEMP:  36;

NASHUA         CLEAR     33  20  58 NW10      30.09R
MANCHESTER     PTCLDY    34  20  56 NW9       30.06R
6HR MIN TEMP:  33; 6HR MAX TEMP:  39;

CONCORD        MOCLDY    34  21  59 CALM      30.06S
6HR MIN TEMP:  33; 6HR MAX TEMP:  38;

LACONIA        CLOUDY    33  20  58 NW10G20   30.05R
PLYMOUTH         N/A     32  21  65 W12G18    30.07R
BERLIN         CLOUDY    29  18  63 NW8G20    30.03R
6HR MIN TEMP:  29; 6HR MAX TEMP:  31; 6HR PCP: TRACE;

WHITEFIELD     CLOUDY    29  21  72 NW3       30.05S
6HR MIN TEMP:  29; 6HR MAX TEMP:  31; 6HR PCP:  0.01;

JAFFREY        CLOUDY    32  18  56 VRB7G18   30.06R
6HR MIN TEMP:  31; 6HR MAX TEMP:  35;

KEENE          CLOUDY    33  21  61 VRB6      30.10R
LEBANON        CLOUDY    33  22  63 N9        30.08S
6HR MIN TEMP:  33; 6HR MAX TEMP:  34; 6HR PCP: TRACE;

MT WASHINGTON  SNOWSHWR   7   7 100 NW54G63     N/A  VSB 0   WCI -22
6HR MIN TEMP:   6; 6HR MAX TEMP:  10; 6HR PCP:  0.26;

$$

VTZ005-007-008-040700-
VERMONT

CITY           SKY/WX    TMP DP  RH WIND       PRES   REMARKS
ST JOHNSBURY     N/A     31  23  72 MISG      30.07R
MONTPELIER     CLOUDY    27  20  75 NW9G24    30.11R
BURLINGTON     CLOUDY    33  21  61 NW13G23   30.14S
$$

MAZ007-012-024-CTZ003-RIZ002-NYZ038-NYZ072-040700-
SOUTHERN NEW ENGLAND AND NY

CITY           SKY/WX    TMP DP  RH WIND       PRES   REMARKS
BOSTON         PTCLDY    35  22  58 NW10G23   30.08R
WORCESTER      MOCLDY    29  21  72 NW6       30.06R
NANTUCKET      PTCLDY    38  25  59 NW20G29   30.04R
PROVIDENCE     CLEAR     33  22  63 NW8       30.11R
HARTFORD       PTCLDY    32  19  58 NW7       30.14R
ALBANY         MOCLDY    34  20  56 NW7       30.17R
NEW YORK CITY  CLOUDY    44  27  51 NW17      30.17R
$$

ANZ081-ANZ082-ANZ150-NHZ014-MEZ023>029-040700-
COASTAL MARINE OBSERVATIONS

STATION/POSITION TIME  TEMP    WIND        PRES    WAVE
                       AIR SEA DIR/SP/G            HT/PER
                 (UTC) (F)     (DEG/KT/KT) (MB)    (FT/S)
MOUNT DESERT ROC 0600   35                 1014.7R
MATINICUS ROCK   0600   35     340/ 24/ 27 1015.0R
ISLE OF SHOALS   0500   37     310/ 17/ 20 1016.6R
JEFFREYS LEDGE   0538      51                N/A     6/ 6
CASHES LEDGE BUO 0550   39 50  330/ 21/ 25 1015.0R   6/ 6
GEORGES BANK BUO 0450   45 52              1009.2   12/ 8
$$

.............KEY..............
   WCI - WIND CHILL
   TC  - TEMPERATURE IN CELSIUS
   VSB - VISIBILITY IN MILES
   HX  - HEAT INDEX
   FAIR- INDICATES FEW OR NO CLOUDS BELOW 12,000 FT, WITH NO
         SIGNIFICANT WEATHER AND/OR OBSTRUCTIONS TO VISIBILITY.






USA.gov is the U.S. government's official web portal to all federal, state and local government web resources and services.